Find Meteosat 10

NORAD ID: 38552 Int'l Des: 2012-035 Owner: EUMET Country: I-EUM operational
HEOCIRCULARGSO

リアルタイム位置

3D地球を読み込み中...

Meteosat 10について

説明を読み込み中...

次回通過

Passes for default location (London). Set your location on the main map for personalized predictions.

高度履歴

Loading altitude history...

軌道要素

1 38552U 12035B 26135.10315605 .00000006 00000-0 00000-0 0 9998
2 38552 4.5941 61.1567 0001753 319.6176 249.2567 1.00270935 50527
Epoch: May 15, 2026 • Age: 21 hours

現在のステータス

高度 35792.9 km
速度 3.07 km/s
衛星直下点 1.25°N, 0.09°E
打ち上げ日 Jul 5, 2012
運用期間 13.8 years
タイプ weather

技術仕様

分類 Payload
質量 2035.00 kg
乾燥質量 1000.00 kg
総質量 2035.00 kg
長さ 2.40 m
直径 3.20 m
スパン 3.70 m
形状 Cyl
製造者 THALES
バスタイプ MSG
フェーズステータス In Orbit
所有者/国 EUMET/I-EUM

Most Searched